Location: Bergnershof
(48.9468°N, 10.9431°E)
Time: 05:03:48
(UTC+00:00)

MOS 1 - Pass Details

Date: 03 March 2021
Orbit: 878 x 892 km, 99.1° (Epoch: 11 April)

Event Time Altitude Azimuth Distance (km) Brightness Sun altitude
Exits shadow 19:25:59 24° 175° (S) 1,755 5.6 -24.0°
Maximum altitude 19:29:32 73° 256° (WSW) 931 4.4 -24.5°
Drops below altitude 10° 19:35:14 10° 341° (NNW) 2,558 7.2 -25.4°
Sets 19:37:39 0° 344° (NNW) 3,500 7.9 -25.8°
